Doha, Qatar

4:37 PM +03 on December 18, 2017 (GMT +0300)
Doha International

Weather History for OTBD - April, 2012

Change the Weather History Date:

Sunday, April 15, 2012

  Actual Average Record
Temperature  
Mean Temperature 76 °F -  
Max Temperature 85 °F 95 °F 105 °F (2017)
Min Temperature 68 °F 73 °F 64 °F (1997)
Cooling Degree Days 12    
Growing Degree Days 26 (Base 50)    
Moisture  
Dew Point 52 °F    
Average Humidity 41    
Maximum Humidity 73    
Minimum Humidity 16    
Precipitation  
Precipitation 0.00 in 0.01 in - ()
Sea Level Pressure  
Sea Level Pressure 29.90 in    
Wind  
Wind Speed 4 mph ()    
Max Wind Speed 13 mph    
Max Gust Speed -    
Visibility 4.6 miles    
Events      
Averages and records for this station are not official NWS values.
T = Trace of Precipitation, MM = Missing Value Source: Averaged Metar Reports

Daily Weather History Graph

Daily Weather History Graph

Search for Another Location

Airport or City:

Trip Planner

Search our weather history database for the weather conditions in past years. The results will help you decide how hot, cold, wet, or windy it might be!

Date:

Astronomy

Apr. 15, 2012 Rise Set
Actual Time 5:11 AM +03 5:56 PM +03
Civil Twilight 4:47 AM +03 6:20 PM +03
Nautical Twilight 4:20 AM +03 6:47 PM +03
Astronomical Twilight 3:52 AM +03 7:15 PM +03
Moon 1:21 AM +03 (4/15) 12:59 PM +03 (4/15)
Length of Visible Light 13h 32m
Length of Day
12h 45m
Waning Crescent, 30% of the Moon is Illuminated
Apr 15
Waning Crescent
Apr 21
New
Apr 29
First Quarter
May 6
Full
May 13
Last Quarter

Hourly Weather History & Observations

Time (+03) Temp. Dew Point Humidity Pressure Visibility Wind Dir Wind Speed Gust Speed Precip Events Conditions
12:00 AM 73.4 °F 64.4 °F 73% 29.89 in 3.7 mi SW 3.5 mph - N/A   Unknown
12:30 AM 73.4 °F 62.6 °F 69% 29.86 in 3.7 mi Variable 2.3 mph - N/A   Unknown
1:00 AM 73.4 °F 57.2 °F 57% 29.86 in 3.7 mi Variable 2.3 mph - N/A   Unknown
1:30 AM 75.2 °F 53.6 °F 47% 29.86 in 3.7 mi NW 3.5 mph - N/A   Unknown
2:00 AM 75.2 °F 53.6 °F 47% 29.86 in 3.7 mi WNW 3.5 mph - N/A   Unknown
2:30 AM 73.4 °F 55.4 °F 53% 29.86 in 3.7 mi NW 4.6 mph - N/A   Unknown
3:00 AM 74 °F 53 °F 36% 29.86 in 4 mi NW 4.6 mph - -   Widespread Dust
3:00 AM 73.4 °F 51.8 °F 47% 29.86 in 3.7 mi NW 4.6 mph - N/A   Unknown
3:30 AM 73.4 °F 51.8 °F 47% 29.86 in 3.7 mi NW 3.5 mph - N/A   Unknown
4:00 AM 73.4 °F 51.8 °F 47% 29.89 in 4.3 mi Calm Calm - N/A   Unknown
4:30 AM 69.8 °F 53.6 °F 56% 29.89 in 4.3 mi SE 3.5 mph - N/A   Unknown
5:00 AM 69.8 °F 53.6 °F 56% 29.89 in 4.3 mi Variable 1.2 mph - N/A   Unknown
5:30 AM 69.8 °F 55.4 °F 60% 29.89 in 4.3 mi Calm Calm - N/A   Unknown
6:00 AM 71.6 °F 57.2 °F 60% 29.89 in 4.3 mi Calm Calm - N/A   Unknown
6:30 AM 73.4 °F 57.2 °F 57% 29.92 in 4.3 mi Calm Calm - N/A   Unknown
7:00 AM 75.2 °F 59.0 °F 57% 29.92 in 4.3 mi South 3.5 mph - N/A   Unknown
7:30 AM 75.2 °F 59.0 °F 57% 29.95 in 4.3 mi SSE 3.5 mph - N/A   Unknown
8:00 AM 77.0 °F 59.0 °F 54% 29.95 in 4.3 mi South 4.6 mph - N/A   Unknown
8:30 AM 78.8 °F 59.0 °F 51% 29.95 in 5.0 mi Variable 2.3 mph - N/A   Unknown
9:00 AM 82 °F 49 °F 22% 29.96 in 6 mi ESE 5.8 mph - -   Smoke
9:00 AM 82.4 °F 50.0 °F 32% 29.95 in 5.6 mi ESE 5.8 mph - N/A   Unknown
9:30 AM 82.4 °F 46.4 °F 28% 29.95 in - East 4.6 mph - N/A   Clear
10:00 AM 84.2 °F 46.4 °F 27% 29.95 in - NE 4.6 mph - N/A   Clear
10:30 AM 84.2 °F 44.6 °F 25% 29.95 in - East 8.1 mph - N/A   Clear
11:00 AM 84.2 °F 46.4 °F 27% 29.92 in - East 6.9 mph - N/A   Clear
11:30 AM 86.0 °F 44.6 °F 23% 29.92 in - East 9.2 mph - N/A   Clear
12:00 PM 84.2 °F 37.4 °F 19% 29.92 in - East 9.2 mph - N/A   Clear
12:30 PM 86.0 °F 42.8 °F 22% 29.92 in - ESE 10.4 mph - N/A   Clear
1:00 PM 84.2 °F 41.0 °F 22% 29.89 in - East 11.5 mph - N/A   Clear
1:30 PM 84.2 °F 41.0 °F 22% 29.89 in - East 11.5 mph - N/A   Clear
2:00 PM 84.2 °F 48.2 °F 29% 29.89 in - East 11.5 mph - N/A   Clear
2:30 PM 84.2 °F 46.4 °F 27% 29.89 in - East 11.5 mph - N/A   Clear
3:00 PM 84 °F 45 °F 16% 29.89 in 9 mi ESE 12.7 mph - -   Clear
3:00 PM 84.2 °F 44.6 °F 25% 29.89 in - ESE 12.7 mph - N/A   Clear
3:30 PM 84.2 °F 44.6 °F 25% 29.89 in - ESE 11.5 mph - N/A   Clear
4:00 PM 82.4 °F 44.6 °F 26% 29.89 in - ESE 11.5 mph - N/A   Clear
4:30 PM 82.4 °F 41.0 °F 23% 29.89 in - ESE 10.4 mph - N/A   Clear
5:00 PM 82.4 °F 44.6 °F 26% 29.89 in - ESE 9.2 mph - N/A   Clear
5:30 PM 80.6 °F 51.8 °F 37% 29.89 in - East 6.9 mph - N/A   Clear
6:00 PM 78.8 °F 53.6 °F 42% 29.89 in - East 6.9 mph - N/A   Clear
6:30 PM 78.8 °F 53.6 °F 42% 29.89 in - East 6.9 mph - N/A   Clear
7:00 PM 77.0 °F 53.6 °F 44% 29.89 in - East 4.6 mph - N/A   Clear
7:30 PM 77.0 °F 53.6 °F 44% 29.89 in - Variable 2.3 mph - N/A   Clear
8:00 PM 77.0 °F 55.4 °F 47% 29.92 in - Variable 2.3 mph - N/A   Clear
8:30 PM 75.2 °F 55.4 °F 50% 29.92 in - ESE 3.5 mph - N/A   Clear
9:00 PM 76 °F 57 °F 41% 29.92 in 9 mi 2.3 mph - -   Clear
9:00 PM 75.2 °F 57.2 °F 53% 29.92 in - Variable 2.3 mph - N/A   Clear
9:30 PM 75.2 °F 57.2 °F 53% 29.92 in - NE 3.5 mph - N/A   Clear
10:00 PM 75.2 °F 57.2 °F 53% 29.89 in - Variable 2.3 mph - N/A   Clear
10:30 PM 75.2 °F 57.2 °F 53% 29.89 in - East 3.5 mph - N/A   Clear
11:00 PM 75.2 °F 57.2 °F 53% 29.89 in - ENE 3.5 mph - N/A   Clear
11:30 PM 75.2 °F 53.6 °F 47% 29.89 in - NE 3.5 mph - N/A   Clear